Regional Weather Roundup
Issued by NWS

Home | Current Version | Previous Version | Text Only | Print | Product List | Glossary On
Versions: 1 2 3 4 5 6 7 8 9 10 11 12 13 14 15 16 17 18 19 20 21 22 23 24 25 26 27 28 29 30 31 32 33 34 35 36 37 38 39 40 41 42 43 44 45 46 47 48 49 50
053
ASCA42 TJSJ 260410
RWRPR
PUERTO RICO/U.S. VIRGIN ISLANDS HOURLY WEATHER ROUNDUP
NATIONAL WEATHER SERVICE SAN JUAN PR
1200 AM AST SAT MAY 26 2018

PRZ001>002-007>008-010-260500-
PUERTO RICO

CITY           SKY/WX    TMP DP  RH WIND       PRES   REMARKS
SAN JUAN LMM   PTCLDY    77  75  94 E6        30.03F
PONCE          LGT RAIN  77  72  83 E8        30.04F
AGUADILLA      MOCLDY    75  70  83 E7        30.03F
CEIBA          MOCLDY    79  75  89 SE8       30.04
$$

VIZ001>002-260500-
U.S. VIRGIN ISLANDS

CITY           SKY/WX    TMP DP  RH WIND       PRES   REMARKS
CHARLOTTE AMA  CLEAR    N/A N/A N/A E8        30.03
CHRISTIANSTED  PTCLDY    79  73  83 E12       30.03F
$$

HOURLY WEATHER ROUNDUP FOR THE NEWS MEDIA

CITY           SKY/WX    TMP DP  RH WIND       PRES   REMARKS
ORLANDO        FAIR      75  72  90 SE5       30.00F
NEW YORK       FAIR      68  63  84 SW9       29.86S
NEWARK         FAIR      77  61  57 SW10      29.84F
CHICAGO        CLOUDY    77  64  64 SW10      29.79R
HARTFORD       FAIR      64  58  80 SW7       29.78F
BOSTON         MOCLDY    73  57  57 SW16      29.74S
DALLAS         PTCLDY    78  65  63 S8        29.85R
PHILADELPHIA   FAIR      74  63  68 SW10      29.89S
LOS ANGELES    PTCLDY    62  49  62 W22G30    30.05R
WASHINGTON DC  MOCLDY    76  67  73 S9        29.90F



USA.gov is the U.S. government's official web portal to all federal, state and local government web resources and services.